STARLINK-34741, 65097

Orbit data source: Space-Track

STARLINK-34741, 65097 is a payload satellite owned by SpaceX/Seattle (US) in LEO that was launched on Mon, 04 Aug 2025 UTC via an FALCON 9 launch vehicle from the Air Force Eastern Test Range (AFETR). Payload-class satellites include a variety of spacecraft equipped with specific instruments for various scientific and technological missions. These include communications satellites like Starlink; space stations such as the ISS; scientific satellites like the Hubble; Earth observation satellites from companies like Planet Labs, Umbra, and HawkEye 360; GPS; miniature CubeSats for education and research; and military/defense satellites.

Loading next visibility...
Identifier
65097, 2025-167V
Orbit
LEO
Country
Flag of USUS
Related business
Manufacturer
SpaceX/Seattle
Mission
Operational Commercial Communications
Bus & Motor
STARLINK V2MO, Unknown motor
Mass
575 kg wet, ~530 kg dry
Launch date (UTC)
2025-08-04 (11 months ago)
Launch vehicle
FALCON 9
Launch site
Air Force Eastern Test Range (AFETR)
Object type
Payload
Rocket body
Debris
Shape & HBR
Box + 2 Pan, 17.7 m
Radar Cross Section
36.964 m², Large (>1 m²)

Expand to show TLE details & history
Last TLE update: 2 days ago

TLE from 2 days ago
0 STARLINK-34741
1 65097U 25167V   26173.46649045  .00027981  00000-0  83613-3 0  9996
2 65097  53.1588 254.8558 0000719 112.7672 247.3407 15.34401952 49597
Epoch: 2026-06-22T11:11Z
TLE epoch observation values (Epoch: 2026-06-22T11:11:44.774Z)
Latitude
-0.00001°
Longitude
176.26723°
Altitude
463.788 km
Speed
7.636 km/s
True Right ascension
16h 59m 25s
True Declination
0° 00' 00"
Sunlit
Object was in full shadow at epoch
Visualization orbit readout
Latitude
Unknown
Longitude
Unknown
Altitude
Unknown
Speed
Unknown
Apparent Right ascension
Unknown
Apparent Declination
Unknown
Sunlit
N/A
Visualization observer readout
Local Sidereal Time
13:48:51
Azimuth
Unknown
Elevation
Unknown
Doppler factor
Unknown
Orbital elements
Apogee altitude
463.446 km
Perigee altitude
462.463 km
Semi-major axis
6,841.092 km
Eccentricity
0.00007
Inclination
53.1588°
RAAN
254.8558°
Arg. of periapsis
112.7672°
True anomaly
247.3331°
Mean anomaly
247.3407°
Eccentric anomaly
247.3369°
Mean motion
3.83579 °/min
Orbital period
93.85 mins
BSTAR
0.00083613
Loading maneuver chart data...
Computing Atmospheric mass density...
Loading historical data...
Loading historical data...
Loading historical data...
Loading historical data...
Loading historical data...
Loading historical data...
Loading historical data...

Documentation

Showing up to 5 results
|